Location: Bijele Vode
(45.2833°N, 16.2000°E)
Time: 17:05:22
(UTC+00:00)

Cosmos 2278 Rocket - Pass Details

Date: 18 September 2020
Orbit: 841 x 845 km, 71.0° (Epoch: 20 October)

Event Time Altitude Azimuth Distance (km) Brightness Sun altitude
Exits shadow 21:22:35 19° 11° (N) 1,933 4.4 -39.5°
Drops below altitude 10° 21:24:06 10° 17° (NNE) 2,469 5.0 -39.6°
Sets 21:26:39 0° 23° (NNE) 3,408 5.8 -39.9°
